George Town, Bahamas

10:25 AM EDT on April 30, 2017 (GMT -0400)
George Town

Weather History for MYEG - August, 2011

Change the Weather History Date:

Wednesday, August 24, 2011

  Actual Average Record
Temperature  
Mean Temperature 80 °F -  
Max Temperature 82 °F - - ()
Min Temperature 77 °F - - ()
Cooling Degree Days 14    
Growing Degree Days 30 (Base 50)    
Moisture  
Dew Point 72 °F    
Average Humidity 78    
Maximum Humidity 94    
Minimum Humidity 62    
Precipitation  
Precipitation 1.55 in - - ()
Sea Level Pressure  
Sea Level Pressure 29.47 in    
Wind  
Wind Speed 18 mph ()    
Max Wind Speed 40 mph    
Max Gust Speed 68 mph    
Visibility 6.1 miles    
Events Rain , Thunderstorm    
T = Trace of Precipitation, MM = Missing Value Source: Averaged Metar Reports

Daily Weather History Graph

Daily Weather History Graph

Search for Another Location

Airport or City:

Trip Planner

Search our weather history database for the weather conditions in past years. The results will help you decide how hot, cold, wet, or windy it might be!

Date:

Astronomy

Aug. 24, 2011 Rise Set
Actual Time 6:42 AM EDT 7:28 PM EDT
Civil Twilight 6:18 AM EDT 7:51 PM EDT
Nautical Twilight 5:51 AM EDT 8:18 PM EDT
Astronomical Twilight 5:23 AM EDT 8:46 PM EDT
Moon 2:02 AM EDT (8/24) 3:54 PM EDT (8/24)
Length of Visible Light 13h 32m
Length of Day
12h 46m
Waning Crescent, 24% of the Moon is Illuminated
Aug 24
Waning Crescent
Aug 28
New
Sep 4
First Quarter
Sep 12
Full
Sep 20
Last Quarter

Hourly Weather History & Observations

Time (EDT) Temp. Heat Index Dew Point Humidity Pressure Visibility Wind Dir Wind Speed Gust Speed Precip Events Conditions
12:59 AM 80.6 °F 84.6 °F 71.6 °F 74% 29.80 in 10.0 mi ENE 13.8 mph 19.6 mph N/A   Clear
1:59 AM 82.4 °F 85.4 °F 68.0 °F 62% 29.78 in 10.0 mi ENE 13.8 mph 24.2 mph N/A   Clear
2:59 AM 82.4 °F 86.3 °F 69.8 °F 66% 29.75 in 10.0 mi NE 12.7 mph 25.3 mph N/A   Clear
3:59 AM 82.4 °F 86.3 °F 69.8 °F 66% 29.75 in 10.0 mi NE 17.3 mph 26.5 mph N/A   Scattered Clouds
4:59 AM 78.8 °F - 71.6 °F 78% 29.73 in 10.0 mi NNE 16.1 mph 28.8 mph N/A   Overcast
5:59 AM 80.6 °F 84.6 °F 71.6 °F 74% 29.71 in 10.0 mi NE 19.6 mph 28.8 mph N/A   Scattered Clouds
6:59 AM 77.0 °F - 71.6 °F 83% 29.72 in 10.0 mi NE 10.4 mph 17.3 mph 0.11 in   Overcast
7:59 AM 80.6 °F 85.4 °F 73.4 °F 79% 29.70 in 10.0 mi NE 18.4 mph 27.6 mph 0.01 in   Scattered Clouds
8:59 AM 78.8 °F - 73.4 °F 83% 29.70 in 5.0 mi ENE 17.3 mph 27.6 mph N/A Rain Light Rain
9:59 AM 82.4 °F 87.2 °F 71.6 °F 70% 29.69 in 7.0 mi NE 15.0 mph 31.1 mph N/A   Overcast
10:59 AM 82.4 °F 88.2 °F 73.4 °F 74% 29.68 in 5.0 mi NNE 18.4 mph 29.9 mph N/A   Haze
11:59 AM 77.0 °F - 73.4 °F 89% 29.64 in 3.0 mi North 17.3 mph 25.3 mph 0.03 in Rain Light Rain
12:59 PM 80.6 °F 85.4 °F 73.4 °F 79% 29.61 in 7.0 mi NNE 21.9 mph 32.2 mph N/A   Mostly Cloudy
1:59 PM 78.8 °F - 73.4 °F 83% 29.56 in 5.0 mi NNE 24.2 mph 41.4 mph N/A Rain Light Rain
2:59 PM 78.8 °F - 75.2 °F 89% 29.51 in 3.0 mi NNE 21.9 mph 36.8 mph 0.02 in Rain Rain
3:59 PM 80.6 °F 85.4 °F 73.4 °F 79% 29.46 in 5.0 mi NNE 27.6 mph 39.1 mph N/A Rain Light Rain
4:59 PM 80.6 °F 85.4 °F 73.4 °F 79% 29.41 in 5.0 mi NNE 23.0 mph 40.3 mph 0.01 in Thunderstorm Unknown
5:59 PM 78.8 °F - 73.4 °F 83% 29.34 in 4.0 mi North 35.7 mph 51.8 mph 0.01 in Rain Light Rain
6:59 PM 77.0 °F - 75.2 °F 94% 29.25 in 1.8 mi North 31.1 mph 47.2 mph 0.08 in Rain Rain
7:59 PM - - - N/A% 29.16 in 3.0 mi NNW 35.7 mph 59.8 mph 0.03 in Rain Rain
8:59 PM - - - N/A% 29.01 in 1.2 mi NNW 40.3 mph 63.3 mph 0.62 in Rain Heavy Rain
9:59 PM - - - N/A% 28.84 in 2.0 mi NW 40.3 mph 67.9 mph 0.53 in Rain Rain
10:59 PM - - - N/A% 28.76 in 2.5 mi West 31.1 mph 46.0 mph 0.03 in   Overcast
11:59 PM - - - N/A% 28.78 in - WSW 39.1 mph 59.8 mph 0.07 in   Overcast